Flag for Brunei Weather past 2 weeks in Bandar Seri Begawan, Brunei

Now
82 °F

Passing clouds.


Feels Like: 87 °F
Forecast: 82 / 91 °F
Wind: 3 mph from Southwest

Location: Brunei Airport

Current Time: Jul 3, 2015 at 11:47:46 PM

Latest Report: Jul 3, 2015 at 11:00 PM


Visibility: 5 mi

Pressure: 29.83 "Hg

Humidity: 70%

Dew point: 72 °F

Location of Bandar Seri BegawanLocation

Historic Weather in Bandar Seri Begawan — Graph

°F

Bandar Seri Begawan temperature yesterday

Maximum temperature yesterday: 93 °F (at 1:30 PM)
Minimum temperature yesterday: 81 °F (at 1:00 AM)
Average temperature yesterday: 85 °F

Past Weeks' High & Low Weather Summary

 TemperatureHumidityPressure
High95 °F (Jun 24, 1:30 PM)100% (Jun 19, 4:30 AM)29.98 "Hg (Jun 19, 4:30 AM)
Low77 °F (Jun 19, 4:30 AM)47% (Jun 24, 2:00 PM)29.71 "Hg (Jun 19, 5:30 PM)
Average85 °F78%29.85 "Hg
* Reported Jun 18 11:00 PM — Jul 3 11:00 PM, Bandar Seri Begawan, Weather by CustomWeather, © 2015

Note: Actual official high and low records may vary slightly from our data, if they occured in-between our weather recording intervals... More about our weather records

Advertising

Bandar Seri Begawan weather history for previous 24 hours

 ConditionsComfort  
Time TempWeatherWind HumidityBarometerVisibility
11:00 PM
Fri, Jul 3
82 °FPassing clouds.3 mph70%29.83 "Hg5 mi
10:30 PM82 °FPassing clouds.1 mph74%29.83 "Hg5 mi
10:00 PM84 °FPassing clouds.3 mph66%29.80 "Hg5 mi
9:30 PM84 °FPassing clouds.3 mph66%29.80 "Hg5 mi
9:00 PM86 °FPassing clouds.3 mph62%29.80 "Hg5 mi
8:30 PM86 °FPassing clouds.2 mph62%29.80 "Hg5 mi
8:00 PM86 °FPassing clouds.3 mph62%29.77 "Hg5 mi
7:30 PM86 °FPassing clouds.3 mph70%29.77 "Hg4 mi
7:00 PM86 °FPassing clouds.3 mph75%29.74 "Hg4 mi
6:30 PM86 °FPartly sunny.3 mph75%29.74 "Hg4 mi
6:00 PM88 °FPartly sunny.5 mph66%29.74 "Hg4 mi
5:30 PM90 °FPartly sunny.5 mph63%29.74 "Hg4 mi
5:00 PM90 °FPartly sunny.6 mph63%29.71 "Hg5 mi
4:30 PM91 °FPartly sunny.7 mph56%29.74 "Hg5 mi
4:00 PM91 °FPartly sunny.8 mph59%29.74 "Hg5 mi
3:30 PM91 °FPartly sunny.8 mph63%29.74 "Hg6 mi
3:00 PM93 °FPartly sunny.6 mph59%29.74 "HgN/A
2:30 PM93 °FPartly sunny.12 mph53%29.74 "HgN/A
2:00 PM93 °FPartly sunny.10 mph53%29.74 "HgN/A
1:30 PM93 °FPartly sunny.9 mph53%29.77 "HgN/A
1:00 PM93 °FPartly sunny.10 mph53%29.77 "HgN/A
12:30 PM93 °FPartly sunny.9 mph53%29.80 "HgN/A
11:30 AM91 °FBroken clouds.13 mph56%29.80 "HgN/A
10:30 AM90 °FPartly sunny.13 mph63%29.83 "HgN/A
10:00 AM90 °FPartly sunny.12 mph67%29.83 "Hg6 mi
9:30 AM88 °FPartly sunny.9 mph70%29.83 "Hg6 mi
9:00 AM86 °FPartly sunny.9 mph75%29.83 "Hg6 mi
8:30 AM84 °FPartly sunny.7 mph79%29.83 "Hg6 mi
8:00 AM82 °FPartly sunny.2 mph84%29.83 "Hg6 mi
7:30 AM79 °FPartly sunny.3 mph94%29.83 "Hg6 mi
7:00 AM79 °FPartly sunny.3 mph89%29.83 "Hg6 mi
6:30 AM77 °FPartly sunny.3 mph94%29.83 "Hg6 mi
6:00 AM79 °FPassing clouds.3 mph89%29.83 "Hg6 mi
5:30 AM79 °FPartly cloudy.3 mph89%29.80 "Hg6 mi
5:00 AM79 °FPassing clouds.3 mph89%29.80 "Hg6 mi
4:30 AM79 °FPassing clouds.5 mph89%29.80 "Hg6 mi
4:00 AM81 °FPassing clouds.3 mph84%29.80 "Hg6 mi
3:30 AM81 °FPassing clouds.5 mph84%29.80 "Hg6 mi
3:00 AM81 °FPassing clouds.3 mph84%29.80 "Hg6 mi
2:30 AM81 °FPassing clouds.3 mph84%29.83 "HgN/A
2:00 AM81 °FPassing clouds.2 mph79%29.83 "HgN/A
1:30 AM81 °FPassing clouds.3 mph84%29.83 "HgN/A
1:00 AM81 °FPassing clouds.3 mph79%29.86 "HgN/A
12:30 AM81 °FPassing clouds.2 mph79%29.86 "HgN/A
12:00 AM81 °FPassing clouds.1 mph79%29.89 "HgN/A
11:30 PM
Thu, Jul 2
81 °FPassing clouds.2 mph79%29.89 "HgN/A
11:00 PM82 °FPassing clouds.5 mph74%29.86 "HgN/A
Weather by CustomWeather, © 2015

See weather overviewHow to use our weather pages